User: anonymous   Login
Location: Unspecified
(0.0000°N, 0.0000°E)
Time: 21:08:00
(UTC+00:00)
Language:

STARLINK-30442 - Orbit

View from above orbital plane
View from above orbital plane
View from above satellite
View from above satellite

Ground track
Ground track

The orbit is defined by the following mean orbital elements,

1 57868U          26145.49411111 +.00000000 +00000-0 +24207-4 0 00006
2 57868  43.0016 211.4132 0001284 274.2077  85.8628 15.27577464    03
Epoch (UTC): 25 May 2026 11:51:31
Eccentricity: 0.0001284
inclination: 43.0016°
perigee height: 482 km
apogee height: 484 km
right ascension of ascending node: 211.4132°
argument of perigee: 274.2077°
revolutions per day: 15.27577464
mean anomaly at epoch: 85.8628°

The dashed part of the orbit path shows where the satellite is in the earth's shadow,  

DLR